Change the Weather History Date:

Friday, May 2, 2014

  Actual Average (KFMY) Record (KFMY)
Temperature  
Mean Temperature 81 °F 76 °F  
Max Temperature 91 °F 87 °F 94 °F (1990)
Min Temperature 71 °F 66 °F 55 °F (1999)
Degree Days  
Heating Degree Days 0 0  
Month to date heating degree days 0  
Since 1 July heating degree days 287  
Cooling Degree Days 16 11  
Month to date cooling degree days 22  
Year to date cooling degree days 652  
Growing Degree Days 31 (Base 50)    
Moisture  
Dew Point 71 °F    
Average Humidity 72    
Maximum Humidity 100    
Minimum Humidity 46    
Precipitation  
Precipitation 0.00 in 0.06 in 0.57 in (1937)
Month to date precipitation 0.11  
Year to date precipitation 9.26  
Sea Level Pressure  
Sea Level Pressure 29.95 in    
Wind  
Wind Speed 5 mph (South)    
Max Wind Speed 15 mph    
Max Gust Speed 24 mph    
Visibility 8 miles    
Events      
T = Trace of Precipitation, MM = Missing Value Source: NWS Daily Summary

Daily Weather History Graph

Daily Weather History Graph

Search for Another Location

Airport or City:

Trip Planner

Search our weather history database for the weather conditions in past years. The results will help you decide how hot, cold, wet, or windy it might be!

Date:

Astronomy

May. 02, 2014 Rise Set
Actual Time 6:47 AM EDT 7:58 PM EDT
Civil Twilight 6:22 AM EDT 8:22 PM EDT
Nautical Twilight 5:53 AM EDT 8:51 PM EDT
Astronomical Twilight 5:23 AM EDT 9:21 PM EDT
Moon 9:29 AM EDT (5/2) 11:14 PM EDT (5/2)
Length of Visible Light 14h 00m
Length of Day
13h 11m
Waxing Crescent, 12% of the Moon is Illuminated
May 2
Waxing Crescent
May 6
First Quarter
May 14
Full
May 21
Last Quarter
May 28
New

Hourly Weather History & Observations

Time (EDT) Temp. Heat Index Dew Point Humidity Pressure Visibility Wind Dir Wind Speed Gust Speed Precip Events Conditions
12:15 AM 73.4 °F - 73.4 °F 100% 30.00 in 9.0 mi Calm Calm - 0.00 in   Clear
12:35 AM 73.4 °F - 73.4 °F 100% 30.00 in 9.0 mi Calm Calm - 0.00 in   Clear
12:55 AM 73.4 °F - 73.4 °F 100% 30.00 in 10.0 mi Calm Calm - 0.00 in   Clear
1:15 AM 73.4 °F - - N/A% 29.99 in 9.0 mi SSE 4.6 mph - 0.00 in   Clear
1:35 AM 73.4 °F - - N/A% 29.99 in 10.0 mi SSE 5.8 mph - 0.00 in   Clear
1:55 AM 71.6 °F - - N/A% 29.99 in 9.0 mi Calm Calm - 0.00 in   Clear
2:15 AM 71.6 °F - - N/A% 29.98 in 10.0 mi SE 6.9 mph - 0.00 in   Clear
2:35 AM 71.6 °F - - N/A% 29.97 in 10.0 mi SE 8.1 mph - 0.00 in   Partly Cloudy
2:55 AM 73.4 °F - - N/A% 29.97 in 10.0 mi SE 5.8 mph - 0.00 in   Mostly Cloudy
3:15 AM 71.6 °F - - N/A% 29.97 in 9.0 mi SSE 6.9 mph - 0.00 in   Partly Cloudy
3:35 AM 71.6 °F - - N/A% 29.97 in 8.0 mi SE 4.6 mph - 0.00 in   Clear
3:55 AM 71.6 °F - - N/A% 29.96 in 10.0 mi Calm Calm - 0.00 in   Clear
4:15 AM 71.6 °F - - N/A% 29.96 in 10.0 mi SSE 4.6 mph - 0.00 in   Clear
4:35 AM 71.6 °F - - N/A% 29.96 in 9.0 mi Calm Calm - 0.00 in   Clear
4:55 AM 71.6 °F - - N/A% 29.95 in 9.0 mi SSE 4.6 mph - 0.00 in   Clear
5:15 AM 71.6 °F - - N/A% 29.95 in 9.0 mi SE 5.8 mph - 0.00 in   Clear
5:35 AM 71.6 °F - - N/A% 29.96 in 9.0 mi SE 3.5 mph - 0.00 in   Partly Cloudy
5:55 AM 71.6 °F - - N/A% 29.95 in 8.0 mi Calm Calm - 0.00 in   Clear
6:15 AM 71.6 °F - - N/A% 29.95 in 9.0 mi ESE 3.5 mph - 0.00 in   Clear
6:35 AM 71.6 °F - - N/A% 29.95 in 8.0 mi SE 6.9 mph - 0.00 in   Clear
7:15 AM 71.6 °F - - N/A% 29.95 in 7.0 mi SSE 4.6 mph - 0.00 in   Clear
7:35 AM 73.4 °F - - N/A% 29.95 in 7.0 mi SSE 5.8 mph - 0.00 in   Clear
7:55 AM 75.2 °F - - N/A% 29.95 in 6.0 mi South 8.1 mph - 0.00 in   Clear
8:15 AM 75.2 °F - - N/A% 29.94 in 7.0 mi SSE 8.1 mph - 0.00 in   Clear
8:35 AM 75.2 °F - 75.2 °F 100% 29.95 in 6.0 mi SSE 8.1 mph - 0.00 in   Clear
8:55 AM 77.0 °F - 77.0 °F 100% 29.95 in 7.0 mi South 8.1 mph - 0.00 in   Clear
9:15 AM 78.8 °F - 78.8 °F 100% 29.94 in 7.0 mi SSE 10.4 mph - 0.00 in   Clear
9:35 AM 80.6 °F 88.1 °F 78.8 °F 94% 29.94 in 8.0 mi SSE 11.5 mph - 0.00 in   Clear
9:55 AM 80.6 °F 87.1 °F 77.0 °F 89% 29.94 in 7.0 mi SSE 12.7 mph - 0.00 in   Clear
10:15 AM 82.4 °F 90.9 °F 77.0 °F 84% 29.95 in 7.0 mi South 12.7 mph - 0.00 in   Clear
10:35 AM 84.2 °F 92.3 °F 75.2 °F 74% 29.95 in 7.0 mi South 10.4 mph 18.4 mph 0.00 in   Clear
10:55 AM 84.2 °F 92.3 °F 75.2 °F 74% 29.95 in 8.0 mi South 13.8 mph 19.6 mph 0.00 in   Clear
11:15 AM 87.8 °F 95.6 °F 73.4 °F 62% 29.96 in 8.0 mi South 11.5 mph - 0.00 in   Partly Cloudy
11:35 AM 87.8 °F 92.6 °F 69.8 °F 55% 29.96 in 7.0 mi South 6.9 mph 18.4 mph 0.00 in   Clear
11:55 AM 87.8 °F 92.6 °F 69.8 °F 55% 29.97 in 8.0 mi South 13.8 mph 18.4 mph 0.00 in   Clear
12:15 PM 87.8 °F 92.6 °F 69.8 °F 55% 29.96 in 8.0 mi South 11.5 mph - 0.00 in   Partly Cloudy
12:35 PM 87.8 °F 92.6 °F 69.8 °F 55% 29.95 in 7.0 mi South 10.4 mph 16.1 mph 0.00 in   Scattered Clouds
12:55 PM 89.6 °F 96.2 °F 71.6 °F 55% 29.95 in 8.0 mi South 13.8 mph 17.3 mph 0.00 in   Partly Cloudy
1:15 PM 89.6 °F 94.7 °F 69.8 °F 52% 29.94 in 7.0 mi South 10.4 mph - 0.00 in   Scattered Clouds
1:35 PM 89.6 °F 94.7 °F 69.8 °F 52% 29.93 in 7.0 mi SSW 12.7 mph 17.3 mph 0.00 in   Partly Cloudy
1:55 PM 89.6 °F 94.7 °F 69.8 °F 52% 29.92 in 7.0 mi South 10.4 mph 18.4 mph 0.00 in   Partly Cloudy
2:15 PM 89.6 °F 96.2 °F 71.6 °F 55% 29.92 in 7.0 mi SSW 11.5 mph 18.4 mph 0.00 in   Clear
2:35 PM 91.4 °F 98.4 °F 71.6 °F 52% 29.92 in 8.0 mi South 13.8 mph 17.3 mph 0.00 in   Scattered Clouds
2:55 PM 91.4 °F 96.8 °F 69.8 °F 49% 29.91 in 9.0 mi South 11.5 mph 24.2 mph 0.00 in   Scattered Clouds
3:15 PM 91.4 °F 96.8 °F 69.8 °F 49% 29.90 in 8.0 mi SSW 10.4 mph 18.4 mph 0.00 in   Clear
3:35 PM 89.6 °F 93.4 °F 68.0 °F 49% 29.90 in 8.0 mi South 12.7 mph 18.4 mph 0.00 in   Scattered Clouds
4:15 PM 89.6 °F 92.2 °F 66.2 °F 46% 29.88 in 8.0 mi South 13.8 mph 19.6 mph 0.00 in   Partly Cloudy
4:35 PM 87.8 °F 90.4 °F 66.2 °F 49% 29.89 in 8.0 mi SW 11.5 mph 19.6 mph 0.00 in   Partly Cloudy
5:15 PM 89.6 °F 92.2 °F 66.2 °F 46% 29.89 in 7.0 mi SSW 11.5 mph 17.3 mph 0.00 in   Clear
5:35 PM 86.0 °F 88.2 °F 66.2 °F 51% 29.89 in 8.0 mi SSW 10.4 mph - 0.00 in   Clear
5:55 PM 86.0 °F 88.2 °F 66.2 °F 51% 29.89 in 7.0 mi SSW 9.2 mph - 0.00 in   Clear
6:15 PM 86.0 °F 87.3 °F 64.4 °F 48% 29.90 in 8.0 mi SSW 6.9 mph - 0.00 in   Clear
6:35 PM 84.2 °F 86.6 °F 66.2 °F 55% 29.91 in 7.0 mi SSW 6.9 mph - 0.00 in   Clear
6:55 PM 84.2 °F 86.6 °F 66.2 °F 55% 29.91 in 8.0 mi SSW 6.9 mph - 0.00 in   Clear
7:15 PM 82.4 °F 84.6 °F 66.2 °F 58% 29.91 in 8.0 mi SSW 5.8 mph - 0.00 in   Clear
7:35 PM 82.4 °F 84.6 °F 66.2 °F 58% 29.92 in 8.0 mi SSW 4.6 mph - 0.00 in   Scattered Clouds
7:55 PM 82.4 °F 85.4 °F 68.0 °F 62% 29.93 in 9.0 mi West 4.6 mph - 0.00 in   Mostly Cloudy
8:15 PM 80.6 °F 83.9 °F 69.8 °F 70% 29.95 in 9.0 mi NW 15.0 mph 18.4 mph 0.00 in   Overcast
8:35 PM 75.2 °F - 71.6 °F 89% 29.95 in 10.0 mi NW 6.9 mph - 0.00 in   Overcast
8:55 PM 73.4 °F - 73.4 °F 100% 29.96 in 10.0 mi NNW 6.9 mph - 0.00 in   Mostly Cloudy
9:15 PM 73.4 °F - 73.4 °F 100% 29.95 in 9.0 mi NNW 4.6 mph - 0.00 in   Mostly Cloudy
9:35 PM 71.6 °F - 71.6 °F 100% 29.96 in 10.0 mi Calm Calm - 0.00 in   Mostly Cloudy
9:55 PM 71.6 °F - 71.6 °F 100% 29.97 in 10.0 mi Calm Calm - 0.00 in   Scattered Clouds
10:15 PM 71.6 °F - 71.6 °F 100% 29.97 in 9.0 mi Calm Calm - 0.00 in   Partly Cloudy
10:35 PM 71.6 °F - 71.6 °F 100% 29.97 in 10.0 mi Calm Calm - 0.00 in   Clear
11:15 PM 71.6 °F - 71.6 °F 100% 29.97 in 10.0 mi Calm Calm - 0.00 in   Clear
11:35 PM 71.6 °F - 71.6 °F 100% 29.98 in 9.0 mi Calm Calm - 0.00 in   Clear